Location: Balaclava NSW 2575, Australia
(34.4510°S, 150.4953°E)
Time: 12:44:30
(UTC+10:00)

N. Korean satellite - Visible Passes

Search period start: 18 August 2019 00:00
Search period end: 28 August 2019 00:00
Orbit: 457 x 507 km, 97.2° (Epoch: 16 August)

Date Brightness Start Highest point End Pass type
(mag) Time Alt. Az. Time Alt. Az. Time Alt. Az.
18 Aug 9.8 04:14:07 10° E 04:15:18 11° ESE 04:16:31 10° SE visible
18 Aug 7.3 05:45:14 10° NNW 05:48:23 31° W 05:51:32 10° SSW visible
18 Aug 9.6 18:48:57 10° SSW 18:51:15 16° WSW 18:53:32 10° WNW visible
19 Aug 6.3 05:19:42 10° N 05:23:10 77° WNW 05:26:42 10° SSW visible
19 Aug 8.4 18:22:58 10° S 18:26:15 34° WSW 18:29:32 10° NW visible
20 Aug 7.7 04:54:46 10° NNE 04:58:05 42° ESE 05:01:25 10° S visible
20 Aug 6.7 17:57:34 10° S 18:01:10 82° WSW 18:04:47 10° NNW visible
21 Aug 9.2 04:30:30 10° ENE 04:33:03 19° ESE 04:35:37 10° SSE visible
21 Aug 8.0 06:03:56 10° NW 06:06:21 18° W 06:08:46 10° SW visible
22 Aug 6.9 05:37:49 10° N 05:41:05 39° W 05:44:24 10° SSW visible
22 Aug 9.4 18:41:20 10° SSW 18:44:02 20° WSW 18:46:46 10° WNW visible
23 Aug 6.5 05:12:28 10° NNE 05:15:55 83° ESE 05:19:25 10° S visible
23 Aug 7.9 18:15:34 10° S 18:19:01 43° WSW 18:22:29 10° NNW visible
24 Aug 8.2 04:47:40 10° NE 04:50:50 33° ESE 04:54:00 10° S visible
25 Aug 9.6 04:23:40 10° ENE 04:25:50 16° ESE 04:28:00 10° SSE visible
25 Aug 7.7 05:56:18 10° NNW 05:59:01 22° W 06:01:47 10° SW visible
25 Aug 9.9 19:00:18 10° SW 19:01:47 12° WSW 19:03:17 10° W visible
26 Aug 6.6 05:30:26 10° N 05:33:47 50° W 05:37:12 10° SSW visible
26 Aug 9.1 18:33:48 10° SSW 18:36:50 25° WSW 18:39:51 10° NW visible
27 Aug 6.9 05:05:13 10° NNE 05:08:38 64° ESE 05:12:06 10° S visible
27 Aug 7.4 18:08:11 10° S 18:11:47 55° WSW 18:15:22 10° NNW visible
